Location: Molveno
(46.1500°N, 10.9667°E)
Time: 08:14:44
(UTC+00:00)

NOSS 3-4 (A) - Pass Details

Date: 05 July 2020
Orbit: 892 x 1320 km, 63.4° (Epoch: 12 July)

Event Time Altitude Azimuth Distance (km) Brightness Sun altitude
Rises 22:05:55 0° 320° (NW) 3,816 7.9 -19.1°
Reaches altitude 10° 22:08:26 10° 321° (NW) 2,917 7.0 -19.2°
Maximum altitude 22:15:26 88° 234° (SW) 1,168 3.8 -19.6°
Enters shadow 22:19:47 29° 145° (SE) 2,063 4.7 -19.8°
